KLM1139 EHAM-EIDW

Flight info

Callsign KLM1139
Flight time 1h 18m
Altitude 38000
Route BERGI L60 PENIL UL28 LELDO M145 BAGSO BAGSO4L
Aircraft B738/M-SDE2E3FGHIRWXY/LB1

Departure

Time 2026-04-17 09:44
Airport Amsterdam Airport Schiphol (EHAM)

Arrival

Time 2026-04-17 11:02
Airport Dublin Airport (EIDW)
Time Latitude Longitude Altitude Speed Heading
2026-04-17 09:28 52.30796 4.77166 -2 ft 0 kts 183°
2026-04-17 09:34 52.30804 4.77166 -2 ft 4 kts 188°
2026-04-17 09:35 52.30828 4.77177 -2 ft 4 kts 174°
2026-04-17 09:35 52.30840 4.77166 -2 ft 4 kts 107°
2026-04-17 09:35 52.30844 4.77141 -2 ft 0 kts 108°
2026-04-17 09:39 52.30842 4.77160 -2 ft 5 kts 95°
2026-04-17 09:39 52.30843 4.77237 -2 ft 7 kts 90°
2026-04-17 09:39 52.30841 4.77317 -2 ft 7 kts 92°
2026-04-17 09:40 52.30836 4.77395 -2 ft 7 kts 94°
2026-04-17 09:40 52.30834 4.77472 -2 ft 7 kts 92°
2026-04-17 09:40 52.30830 4.77547 -2 ft 7 kts 108°
2026-04-17 09:40 52.30796 4.77594 -2 ft 6 kts 161°
2026-04-17 09:41 52.30751 4.77596 -2 ft 7 kts 180°
2026-04-17 09:41 52.30700 4.77590 -2 ft 8 kts 182°
2026-04-17 09:41 52.30647 4.77565 -2 ft 8 kts 193°
2026-04-17 09:41 52.30586 4.77548 -2 ft 9 kts 180°
2026-04-17 09:42 52.30521 4.77577 -2 ft 10 kts 166°
2026-04-17 09:42 52.30454 4.77582 -3 ft 10 kts 182°
2026-04-17 09:42 52.30389 4.77539 -3 ft 11 kts 224°
2026-04-17 09:42 52.30341 4.77438 -3 ft 12 kts 237°
2026-04-17 09:43 52.30201 4.77084 -4 ft 68 kts 238°
2026-04-17 09:43 52.29843 4.76150 -5 ft 123 kts 238°
2026-04-17 09:43 52.29318 4.74771 39 ft 161 kts 241°
2026-04-17 09:43 52.28751 4.73194 558 ft 166 kts 233°
2026-04-17 09:44 52.27934 4.71761 966 ft 178 kts 220°
2026-04-17 09:44 52.26958 4.70401 1436 ft 188 kts 222°
2026-04-17 09:44 52.26051 4.68885 2124 ft 187 kts 226°
2026-04-17 09:44 52.25191 4.67289 2770 ft 188 kts 225°
2026-04-17 09:45 52.24385 4.65569 3306 ft 193 kts 237°
2026-04-17 09:45 52.23692 4.63647 3778 ft 199 kts 240°
2026-04-17 09:45 52.23247 4.61381 3936 ft 221 kts 256°
2026-04-17 09:45 52.22865 4.58882 4245 ft 231 kts 256°
2026-04-17 09:46 52.22946 4.56185 4490 ft 255 kts 289°
2026-04-17 09:46 52.24008 4.53797 5050 ft 268 kts 318°
2026-04-17 09:46 52.25577 4.52107 5769 ft 272 kts 327°
2026-04-17 09:46 52.27198 4.50553 6474 ft 275 kts 327°
2026-04-17 09:47 52.28858 4.48958 7165 ft 278 kts 326°
2026-04-17 09:47 52.30528 4.47326 7851 ft 281 kts 326°
2026-04-17 09:47 52.32211 4.45660 8543 ft 285 kts 325°
2026-04-17 09:47 52.33914 4.43964 9263 ft 288 kts 325°
2026-04-17 09:48 52.35667 4.42327 9986 ft 295 kts 334°
2026-04-17 09:48 52.37710 4.41648 10562 ft 308 kts 351°
2026-04-17 09:48 52.39933 4.41307 10726 ft 332 kts 352°
2026-04-17 09:48 52.42303 4.40972 10943 ft 351 kts 352°
2026-04-17 09:49 52.44774 4.40622 11448 ft 360 kts 352°
2026-04-17 09:49 52.47280 4.40256 12128 ft 363 kts 352°
2026-04-17 09:49 52.49804 4.39876 12848 ft 366 kts 352°
2026-04-17 09:49 52.52350 4.39483 13571 ft 369 kts 352°
2026-04-17 09:50 52.54926 4.39078 14255 ft 373 kts 352°
2026-04-17 09:50 52.57532 4.38666 14906 ft 377 kts 351°
2026-04-17 09:50 52.60152 4.38250 15591 ft 380 kts 351°
2026-04-17 09:50 52.62765 4.37835 16268 ft 383 kts 351°
2026-04-17 09:51 52.65434 4.37410 16935 ft 387 kts 351°
2026-04-17 09:51 52.68130 4.36980 17590 ft 391 kts 351°
2026-04-17 09:51 52.70843 4.36455 18241 ft 392 kts 344°
2026-04-17 09:51 52.73332 4.34733 18807 ft 386 kts 321°
2026-04-17 09:52 52.75264 4.31743 19450 ft 379 kts 304°
2026-04-17 09:52 52.76582 4.28030 20051 ft 374 kts 288°
2026-04-17 09:52 52.77453 4.23975 20638 ft 375 kts 285°
2026-04-17 09:52 52.78255 4.19901 21187 ft 378 kts 285°
2026-04-17 09:53 52.79055 4.15747 21732 ft 381 kts 285°
2026-04-17 09:53 52.79862 4.11572 22294 ft 383 kts 285°
2026-04-17 09:53 52.80686 4.07353 22851 ft 385 kts 285°
2026-04-17 09:53 52.81237 4.04553 23199 ft 387 kts 285°
2026-04-17 09:54 52.82361 3.98869 23888 ft 391 kts 285°
2026-04-17 09:54 52.83213 3.94583 24339 ft 393 kts 285°
2026-04-17 09:54 52.84066 3.90288 24815 ft 394 kts 285°
2026-04-17 09:54 52.84923 3.85970 25266 ft 395 kts 285°
2026-04-17 09:55 52.85768 3.81705 25691 ft 396 kts 285°
2026-04-17 09:55 52.86627 3.77357 26114 ft 398 kts 285°
2026-04-17 09:55 52.87487 3.72997 26533 ft 400 kts 285°
2026-04-17 09:55 52.88350 3.68610 26947 ft 401 kts 285°
2026-04-17 09:56 52.89215 3.64205 27349 ft 403 kts 285°
2026-04-17 09:56 52.89788 3.61279 27605 ft 404 kts 285°
2026-04-17 09:56 52.90656 3.56837 27993 ft 405 kts 285°
2026-04-17 09:56 52.91528 3.52368 28393 ft 407 kts 284°
2026-04-17 09:57 52.92399 3.47892 28755 ft 409 kts 284°
2026-04-17 09:57 52.93271 3.43397 29114 ft 410 kts 284°
2026-04-17 09:57 52.94146 3.38882 29465 ft 412 kts 284°
2026-04-17 09:57 52.95022 3.34348 29809 ft 413 kts 284°
2026-04-17 09:58 52.95890 3.29846 30138 ft 415 kts 284°
2026-04-17 09:58 52.96770 3.25279 30450 ft 416 kts 284°
2026-04-17 09:58 52.97648 3.20702 30749 ft 416 kts 284°
2026-04-17 09:58 52.98525 3.16116 31142 ft 414 kts 284°
2026-04-17 09:59 52.99391 3.11565 31585 ft 411 kts 284°
2026-04-17 09:59 53.00248 3.07049 31987 ft 409 kts 284°
2026-04-17 09:59 53.01101 3.02547 32384 ft 408 kts 284°
2026-04-17 09:59 53.01936 2.98122 32754 ft 406 kts 284°
2026-04-17 10:00 53.02778 2.93655 33151 ft 404 kts 284°
2026-04-17 10:00 53.03612 2.89218 33547 ft 401 kts 284°
2026-04-17 10:00 53.04443 2.84786 33901 ft 400 kts 284°
2026-04-17 10:00 53.05271 2.80365 34236 ft 399 kts 284°
2026-04-17 10:01 53.06093 2.75961 34515 ft 398 kts 284°
2026-04-17 10:01 53.06912 2.71562 34730 ft 399 kts 284°
2026-04-17 10:01 53.07730 2.67159 34946 ft 399 kts 284°
2026-04-17 10:01 53.08548 2.62750 35200 ft 398 kts 284°
2026-04-17 10:02 53.09364 2.58340 35448 ft 398 kts 284°
2026-04-17 10:02 53.10166 2.53999 35669 ft 398 kts 284°
2026-04-17 10:02 53.10936 2.49570 35876 ft 397 kts 280°
2026-04-17 10:02 53.11402 2.45051 36098 ft 396 kts 276°
2026-04-17 10:03 53.11765 2.40516 36335 ft 395 kts 275°
2026-04-17 10:03 53.12114 2.35977 36544 ft 395 kts 275°
2026-04-17 10:03 53.12464 2.31436 36750 ft 395 kts 276°
2026-04-17 10:03 53.12816 2.26900 36970 ft 395 kts 276°
2026-04-17 10:04 53.13173 2.22370 37176 ft 395 kts 276°
2026-04-17 10:04 53.13534 2.17816 37323 ft 396 kts 276°
2026-04-17 10:04 53.13897 2.13258 37453 ft 398 kts 276°
2026-04-17 10:04 53.14260 2.08691 37630 ft 398 kts 276°
2026-04-17 10:05 53.14617 2.04185 37852 ft 397 kts 276°
2026-04-17 10:05 53.14978 1.99630 38075 ft 396 kts 275°
2026-04-17 10:05 53.15695 1.90485 38164 ft 399 kts 275°
2026-04-17 10:06 53.16407 1.81319 38163 ft 397 kts 275°
2026-04-17 10:06 53.17106 1.72236 38154 ft 394 kts 275°
2026-04-17 10:07 53.17793 1.63196 38153 ft 391 kts 275°
2026-04-17 10:07 53.18471 1.54197 38155 ft 390 kts 275°
2026-04-17 10:08 53.19134 1.45296 38152 ft 390 kts 275°
2026-04-17 10:08 53.19797 1.36290 38152 ft 391 kts 275°
2026-04-17 10:09 53.20456 1.27263 38152 ft 393 kts 275°
2026-04-17 10:09 53.21113 1.18159 38144 ft 395 kts 274°
2026-04-17 10:10 53.21764 1.09034 38159 ft 397 kts 274°
2026-04-17 10:11 53.22732 0.95297 38140 ft 400 kts 274°
2026-04-17 10:11 53.23374 0.86040 38129 ft 401 kts 274°
2026-04-17 10:12 53.24011 0.76770 38123 ft 402 kts 274°
2026-04-17 10:12 53.24641 0.67483 38121 ft 402 kts 274°
2026-04-17 10:13 53.25263 0.58206 38130 ft 402 kts 274°
2026-04-17 10:13 53.25873 0.49003 38125 ft 401 kts 273°
2026-04-17 10:14 53.26479 0.39736 38097 ft 400 kts 273°
2026-04-17 10:14 53.27077 0.30498 38095 ft 399 kts 273°
2026-04-17 10:15 53.27666 0.21281 38096 ft 398 kts 273°
2026-04-17 10:15 53.28244 0.12136 38095 ft 398 kts 273°
2026-04-17 10:16 53.28826 0.02938 38090 ft 398 kts 274°
2026-04-17 10:16 53.29723 -0.06199 38093 ft 399 kts 276°
2026-04-17 10:17 53.30705 -0.15335 38094 ft 400 kts 276°
2026-04-17 10:17 53.31659 -0.24499 38102 ft 400 kts 276°
2026-04-17 10:18 53.32596 -0.33711 38102 ft 402 kts 276°
2026-04-17 10:18 53.33529 -0.42958 38094 ft 403 kts 276°
2026-04-17 10:19 53.34457 -0.52170 38101 ft 404 kts 276°
2026-04-17 10:19 53.35389 -0.61453 38101 ft 405 kts 276°
2026-04-17 10:20 53.36309 -0.70776 38093 ft 405 kts 276°
2026-04-17 10:20 53.37210 -0.80106 38081 ft 406 kts 275°
2026-04-17 10:21 53.38103 -0.89380 38076 ft 405 kts 275°
2026-04-17 10:21 53.39011 -0.98709 38060 ft 405 kts 276°
2026-04-17 10:22 53.39929 -1.08017 38062 ft 405 kts 275°
2026-04-17 10:22 53.40816 -1.17334 38061 ft 404 kts 275°
2026-04-17 10:23 53.41685 -1.26645 38057 ft 404 kts 275°
2026-04-17 10:23 53.42538 -1.35898 38054 ft 403 kts 275°
2026-04-17 10:24 53.43412 -1.45189 38049 ft 403 kts 275°
2026-04-17 10:24 53.44272 -1.54468 38052 ft 402 kts 275°
2026-04-17 10:25 53.45119 -1.63755 38057 ft 402 kts 274°
2026-04-17 10:25 53.45961 -1.73051 38042 ft 402 kts 274°
2026-04-17 10:26 53.46795 -1.82349 38037 ft 403 kts 274°
2026-04-17 10:26 53.47603 -1.91599 38046 ft 403 kts 274°
2026-04-17 10:27 53.48407 -2.00909 38040 ft 403 kts 274°
2026-04-17 10:27 53.49208 -2.10235 38041 ft 405 kts 273°
2026-04-17 10:28 53.50005 -2.19601 38036 ft 406 kts 273°
2026-04-17 10:28 53.50801 -2.29004 38024 ft 407 kts 273°
2026-04-17 10:29 53.51595 -2.38439 38028 ft 407 kts 273°
2026-04-17 10:29 53.52382 -2.47882 38016 ft 408 kts 273°
2026-04-17 10:30 53.53159 -2.57290 38009 ft 408 kts 273°
2026-04-17 10:30 53.53933 -2.66777 37690 ft 414 kts 272°
2026-04-17 10:30 53.54321 -2.71578 37206 ft 412 kts 272°
2026-04-17 10:31 53.54707 -2.76342 36666 ft 408 kts 271°
2026-04-17 10:31 53.55087 -2.81063 36078 ft 406 kts 271°
2026-04-17 10:31 53.55463 -2.85745 35661 ft 400 kts 271°
2026-04-17 10:31 53.55831 -2.90365 35214 ft 396 kts 271°
2026-04-17 10:32 53.56193 -2.94931 34802 ft 391 kts 270°
2026-04-17 10:32 53.56549 -2.99451 34388 ft 387 kts 270°
2026-04-17 10:32 53.56898 -3.03906 33984 ft 382 kts 270°
2026-04-17 10:32 53.57236 -3.08251 33536 ft 377 kts 270°
2026-04-17 10:33 53.57574 -3.12600 33160 ft 372 kts 269°
2026-04-17 10:33 53.57905 -3.16901 32714 ft 369 kts 269°
2026-04-17 10:33 53.58231 -3.21156 32309 ft 364 kts 269°
2026-04-17 10:33 53.58552 -3.25365 31924 ft 360 kts 269°
2026-04-17 10:34 53.58868 -3.29530 31518 ft 357 kts 269°
2026-04-17 10:34 53.59179 -3.33651 31144 ft 353 kts 268°
2026-04-17 10:34 53.59487 -3.37741 30766 ft 350 kts 268°
2026-04-17 10:34 53.59789 -3.41782 30396 ft 347 kts 268°
2026-04-17 10:35 53.60088 -3.45794 30019 ft 344 kts 268°
2026-04-17 10:35 53.60383 -3.49786 29590 ft 341 kts 268°
2026-04-17 10:35 53.60671 -3.53666 29210 ft 337 kts 268°
2026-04-17 10:35 53.60959 -3.57564 28815 ft 333 kts 268°
2026-04-17 10:36 53.61241 -3.61418 28429 ft 330 kts 268°
2026-04-17 10:36 53.61559 -3.65250 28071 ft 331 kts 272°
2026-04-17 10:36 53.62182 -3.69033 27589 ft 341 kts 281°
2026-04-17 10:36 53.63069 -3.72750 27197 ft 342 kts 282°
2026-04-17 10:37 53.63980 -3.76473 26800 ft 346 kts 282°
2026-04-17 10:37 53.64906 -3.80290 26433 ft 355 kts 282°
2026-04-17 10:37 53.65831 -3.84123 26036 ft 357 kts 283°
2026-04-17 10:37 53.66761 -3.87996 25645 ft 354 kts 282°
2026-04-17 10:38 53.67676 -3.91832 25275 ft 351 kts 282°
2026-04-17 10:38 53.68583 -3.95646 24893 ft 350 kts 282°
2026-04-17 10:38 53.69504 -3.99470 24364 ft 353 kts 283°
2026-04-17 10:38 53.70434 -4.03291 23961 ft 352 kts 283°
2026-04-17 10:39 53.71315 -4.07122 23587 ft 345 kts 278°
2026-04-17 10:39 53.71829 -4.11017 23095 ft 335 kts 268°
2026-04-17 10:39 53.71990 -4.14900 22692 ft 329 kts 265°
2026-04-17 10:39 53.72115 -4.18741 22319 ft 326 kts 265°
2026-04-17 10:40 53.72238 -4.22511 21942 ft 324 kts 265°
2026-04-17 10:40 53.72366 -4.26286 21591 ft 320 kts 265°
2026-04-17 10:40 53.72495 -4.30022 21234 ft 317 kts 265°
2026-04-17 10:40 53.72627 -4.33734 20891 ft 314 kts 266°
2026-04-17 10:41 53.72757 -4.37404 20544 ft 312 kts 266°
2026-04-17 10:41 53.72885 -4.41054 20191 ft 309 kts 266°
2026-04-17 10:41 53.73010 -4.44633 19857 ft 307 kts 266°
2026-04-17 10:41 53.73135 -4.48221 19499 ft 306 kts 266°
2026-04-17 10:42 53.73258 -4.51799 19156 ft 304 kts 266°
2026-04-17 10:42 53.73380 -4.55356 18818 ft 303 kts 266°
2026-04-17 10:42 53.73501 -4.58895 18483 ft 301 kts 266°
2026-04-17 10:42 53.73620 -4.62420 18141 ft 300 kts 266°
2026-04-17 10:43 53.73737 -4.65924 17765 ft 298 kts 266°
2026-04-17 10:43 53.73853 -4.69405 17464 ft 295 kts 265°
2026-04-17 10:43 53.73968 -4.72855 17110 ft 293 kts 265°
2026-04-17 10:43 53.74080 -4.76281 16773 ft 291 kts 265°
2026-04-17 10:44 53.74190 -4.79683 16468 ft 288 kts 265°
2026-04-17 10:44 53.74261 -4.81918 16243 ft 287 kts 265°
2026-04-17 10:44 53.74370 -4.85278 15925 ft 285 kts 265°
2026-04-17 10:44 53.74481 -4.88608 15608 ft 283 kts 265°
2026-04-17 10:45 53.74591 -4.91913 15290 ft 281 kts 265°
2026-04-17 10:45 53.74700 -4.95198 14981 ft 279 kts 265°
2026-04-17 10:45 53.74806 -4.98467 14675 ft 277 kts 265°
2026-04-17 10:45 53.74912 -5.01702 14362 ft 275 kts 265°
2026-04-17 10:46 53.75014 -5.04880 14071 ft 273 kts 265°
2026-04-17 10:46 53.75116 -5.08078 13775 ft 271 kts 265°
2026-04-17 10:46 53.75216 -5.11254 13447 ft 270 kts 265°
2026-04-17 10:46 53.75167 -5.14367 13150 ft 259 kts 253°
2026-04-17 10:47 53.74712 -5.17258 12870 ft 253 kts 246°
2026-04-17 10:47 53.74139 -5.20085 12568 ft 255 kts 245°
2026-04-17 10:47 53.73541 -5.22939 12298 ft 259 kts 245°
2026-04-17 10:47 53.72944 -5.25803 11969 ft 258 kts 245°
2026-04-17 10:48 53.72299 -5.28606 11590 ft 255 kts 236°
2026-04-17 10:48 53.71090 -5.30729 11259 ft 250 kts 216°
2026-04-17 10:48 53.69686 -5.32380 10931 ft 249 kts 214°
2026-04-17 10:48 53.68226 -5.34004 10612 ft 247 kts 214°
2026-04-17 10:49 53.66807 -5.35573 10321 ft 246 kts 214°
2026-04-17 10:49 53.65394 -5.37140 10185 ft 238 kts 214°
2026-04-17 10:49 53.64033 -5.38654 10076 ft 230 kts 214°
2026-04-17 10:49 53.62721 -5.40118 9969 ft 222 kts 214°
2026-04-17 10:50 53.61447 -5.41540 9759 ft 218 kts 214°
2026-04-17 10:50 53.60191 -5.42946 9535 ft 215 kts 214°
2026-04-17 10:50 53.58939 -5.44346 9281 ft 217 kts 214°
2026-04-17 10:50 53.57664 -5.45773 9020 ft 223 kts 214°
2026-04-17 10:51 53.56352 -5.47242 8745 ft 229 kts 214°
2026-04-17 10:51 53.55029 -5.48722 8464 ft 232 kts 214°
2026-04-17 10:51 53.53698 -5.50209 8276 ft 226 kts 214°
2026-04-17 10:51 53.52409 -5.51647 8159 ft 218 kts 215°
2026-04-17 10:52 53.51167 -5.53031 8050 ft 210 kts 215°
2026-04-17 10:52 53.49976 -5.54358 7963 ft 201 kts 216°
2026-04-17 10:52 53.49018 -5.56003 7787 ft 197 kts 235°
2026-04-17 10:52 53.48406 -5.58076 7588 ft 202 kts 245°
2026-04-17 10:53 53.47900 -5.60335 7362 ft 210 kts 246°
2026-04-17 10:53 53.47393 -5.62669 7110 ft 215 kts 246°
2026-04-17 10:53 53.46882 -5.65022 6841 ft 215 kts 246°
2026-04-17 10:53 53.46369 -5.67372 6578 ft 214 kts 246°
2026-04-17 10:54 53.45856 -5.69706 6318 ft 213 kts 246°
2026-04-17 10:54 53.45341 -5.72038 6055 ft 213 kts 246°
2026-04-17 10:54 53.44833 -5.74331 5782 ft 212 kts 247°
2026-04-17 10:54 53.44320 -5.76639 5520 ft 210 kts 246°
2026-04-17 10:55 53.43809 -5.78933 5254 ft 209 kts 246°
2026-04-17 10:55 53.43329 -5.81086 5051 ft 207 kts 246°
2026-04-17 10:55 53.42831 -5.83319 4849 ft 203 kts 246°
2026-04-17 10:55 53.42335 -5.85532 4614 ft 202 kts 246°
2026-04-17 10:56 53.41842 -5.87726 4360 ft 201 kts 246°
2026-04-17 10:56 53.41351 -5.89910 4122 ft 199 kts 246°
2026-04-17 10:56 53.40863 -5.92076 3888 ft 198 kts 246°
2026-04-17 10:56 53.40427 -5.94261 3631 ft 199 kts 258°
2026-04-17 10:57 53.40538 -5.96592 3435 ft 200 kts 272°
2026-04-17 10:57 53.40661 -5.98868 3182 ft 192 kts 268°
2026-04-17 10:57 53.40766 -6.01029 3043 ft 180 kts 268°
2026-04-17 10:57 53.40872 -6.03064 2814 ft 175 kts 268°
2026-04-17 10:58 53.40975 -6.05054 2589 ft 167 kts 268°
2026-04-17 10:58 53.41074 -6.06935 2364 ft 155 kts 268°
2026-04-17 10:58 53.41165 -6.08673 2141 ft 143 kts 267°
2026-04-17 10:58 53.41248 -6.10266 2002 ft 134 kts 266°
2026-04-17 10:59 53.41328 -6.11819 1805 ft 133 kts 266°
2026-04-17 10:59 53.41408 -6.13349 1605 ft 131 kts 265°
2026-04-17 10:59 53.41487 -6.14867 1430 ft 132 kts 265°
2026-04-17 10:59 53.41568 -6.16414 1243 ft 133 kts 265°
2026-04-17 11:00 53.41651 -6.17967 1061 ft 134 kts 267°
2026-04-17 11:00 53.41729 -6.19533 868 ft 135 kts 269°
2026-04-17 11:00 53.41811 -6.21094 724 ft 134 kts 269°
2026-04-17 11:00 53.41898 -6.22657 552 ft 135 kts 273°
2026-04-17 11:01 53.41985 -6.24223 364 ft 133 kts 270°
2026-04-17 11:01 53.42068 -6.25690 216 ft 122 kts 269°
2026-04-17 11:01 53.42107 -6.26921 211 ft 86 kts 270°
2026-04-17 11:01 53.42159 -6.27648 212 ft 52 kts 281°
2026-04-17 11:02 53.42260 -6.28033 212 ft 23 kts 304°
2026-04-17 11:02 53.42348 -6.28106 215 ft 14 kts 40°
2026-04-17 11:02 53.42356 -6.27955 210 ft 13 kts 93°
2026-04-17 11:02 53.42350 -6.27805 215 ft 13 kts 95°
2026-04-17 11:03 53.42341 -6.27658 210 ft 12 kts 95°
2026-04-17 11:03 53.42332 -6.27515 210 ft 12 kts 96°
2026-04-17 11:03 53.42326 -6.27377 210 ft 12 kts 87°
2026-04-17 11:03 53.42325 -6.27243 210 ft 12 kts 98°
2026-04-17 11:04 53.42312 -6.27112 210 ft 11 kts 101°
2026-04-17 11:04 53.42302 -6.26968 210 ft 14 kts 95°
2026-04-17 11:04 53.42291 -6.26785 210 ft 17 kts 96°
2026-04-17 11:04 53.42280 -6.26563 213 ft 21 kts 95°
2026-04-17 11:05 53.42267 -6.26308 210 ft 23 kts 95°
2026-04-17 11:05 53.42252 -6.26022 210 ft 26 kts 95°
2026-04-17 11:05 53.42234 -6.25708 219 ft 28 kts 95°
2026-04-17 11:05 53.42216 -6.25374 210 ft 30 kts 95°
2026-04-17 11:06 53.42212 -6.25070 217 ft 18 kts 74°
2026-04-17 11:06 53.42283 -6.24905 210 ft 17 kts 44°
2026-04-17 11:06 53.42366 -6.24763 215 ft 17 kts 45°
2026-04-17 11:06 53.42431 -6.24608 214 ft 16 kts 61°
2026-04-17 11:07 53.42483 -6.24537 214 ft 8 kts
2026-04-17 11:07 53.42536 -6.24532 219 ft 6 kts
2026-04-17 11:07 53.42554 -6.24530 217 ft 0 kts
2026-04-17 11:08 53.42564 -6.24530 217 ft 0 kts